OPS 4682 DEB, 51766

Orbit data source: Space-Track

OPS 4682 DEB, 51766 is space debris in LEO originally from a launch on Sat, 03 Apr 1965 UTC launched from the Air Force Western Test Range (AFWTR). Debris objects in space refer to the collection of defunct objects orbiting the Earth. Examples of debris include non-operational satellites, rocket bodies, and fragments generated from explosions, collisions, or faulty payload assembly.

Loading next visibility...
Identifier
51766, 1965-027GX
Orbit
LEO
Country
Flag of USUS
Related business
Manufacturer
Unknown
Mission
Spacecraft
Bus & Motor
Unknown
Mass
Unknown
Launch date (UTC)
1965-04-03 (61 years ago)
Launch vehicle
Unknown
Launch site
Air Force Western Test Range (AFWTR)
Object type
Payload
Rocket body
Debris
Shape & HBR
Unknown shape, 1.1 m
Radar Cross Section
Medium (>0.1 m² and <1 m²)

Expand to show TLE details & history
Last TLE update: 3 days ago

TLE from 3 days ago
0 OPS 4682 DEB
1 51766U 65027GX  26260.60618640  .00000102  00000-0  34408-3 0  9997
2 51766  90.2539   9.9455 0031072  39.4054 320.9316 12.93294346554185
Epoch: 2026-09-17T14:32Z
TLE epoch observation values (Epoch: 2026-09-17T14:32:54.504Z)
Latitude
-0.00009°
Longitude
155.17739°
Altitude
1,272.878 km
Speed
7.228 km/s
True Right ascension
00h 39m 46s
True Declination
0° 00' 00"
Sunlit
Object was in full shadow at epoch
Visualization orbit readout
Latitude
Unknown
Longitude
Unknown
Altitude
Unknown
Speed
Unknown
Apparent Right ascension
Unknown
Apparent Declination
Unknown
Sunlit
N/A
Visualization observer readout
Local Sidereal Time
07:00:24
Azimuth
Unknown
Elevation
Unknown
Doppler factor
Unknown
Orbital elements
Apogee altitude
1,309.423 km
Perigee altitude
1,261.797 km
Semi-major axis
7,663.747 km
Eccentricity
0.00311
Inclination
90.2539°
RAAN
9.9455°
Arg. of periapsis
39.4054°
True anomaly
320.70652°
Mean anomaly
320.9316°
Eccentric anomaly
320.81913°
Mean motion
3.23505 °/min
Orbital period
111.28 mins
BSTAR
0.00034408
Loading maneuver chart data...
Computing Atmospheric mass density...
Loading historical data...
Loading historical data...
Loading historical data...
Loading historical data...
Loading historical data...
Loading historical data...
Loading historical data...

Documentation

Showing up to 5 results
|